Hermiston, OR

10:29 AM PDT on June 23, 2017 (GMT -0700)
Hermiston Municipal

Weather History for KHRI - November, 2012

Change the Weather History Date:

Friday, November 16, 2012

  Actual Average Record
Temperature  
Mean Temperature 41 °F 41 °F  
Max Temperature 43 °F 50 °F 66 °F (1965)
Min Temperature 39 °F 31 °F -7 °F (1955)
Degree Days  
Heating Degree Days 24    
Moisture  
Dew Point 37 °F    
Average Humidity 85    
Maximum Humidity 93    
Minimum Humidity 79    
Precipitation  
Precipitation 0.00 in 0.05 in 0.50 in (1906)
Month to date precipitation 0.63  
Year to date precipitation 8.54  
Sea Level Pressure  
Sea Level Pressure 29.99 in    
Wind  
Wind Speed 0 mph (NE)    
Max Wind Speed 4 mph    
Max Gust Speed -    
Visibility 10 miles    
Events      
T = Trace of Precipitation, MM = Missing Value Source: NWS Daily Summary

Daily Weather History Graph

Daily Weather History Graph

Search for Another Location

Airport or City:

Trip Planner

Search our weather history database for the weather conditions in past years. The results will help you decide how hot, cold, wet, or windy it might be!

Date:

Astronomy

Nov. 16, 2012 Rise Set
Actual Time 6:59 AM PST 4:24 PM PST
Civil Twilight 6:26 AM PST 4:56 PM PST
Nautical Twilight 5:50 AM PST 5:32 PM PST
Astronomical Twilight 5:15 AM PST 6:08 PM PST
Moon 10:00 AM PST (11/16) 7:27 PM PST (11/16)
Length of Visible Light 10h 29m
Length of Day
9h 24m
Waxing Crescent, 12% of the Moon is Illuminated
Nov 16
Waxing Crescent
Nov 20
First Quarter
Nov 28
Full
Dec 6
Last Quarter
Dec 13
New

Hourly Weather History & Observations

Time (PST) Temp. Windchill Dew Point Humidity Pressure Visibility Wind Dir Wind Speed Gust Speed Precip Events Conditions
12:53 AM 39.9 °F - 37.9 °F 93% 30.04 in 9.0 mi Calm Calm - N/A   Overcast
1:53 AM 39.9 °F - 37.0 °F 89% 30.04 in 10.0 mi Calm Calm - N/A   Overcast
2:53 AM 39.9 °F - 36.0 °F 86% 30.01 in 10.0 mi Calm Calm - N/A   Overcast
3:53 AM 39.0 °F - 37.0 °F 93% 30.00 in 10.0 mi Calm Calm - N/A   Overcast
4:21 AM 39.2 °F - 37.4 °F 93% 29.99 in 10.0 mi Calm Calm - N/A   Overcast
4:53 AM 39.9 °F - 37.0 °F 89% 30.00 in 10.0 mi Calm Calm - N/A   Overcast
5:53 AM 39.9 °F 37.8 °F 36.0 °F 86% 30.01 in 10.0 mi WNW 3.5 mph - N/A   Overcast
6:53 AM 39.9 °F - 37.0 °F 89% 30.01 in 10.0 mi Calm Calm - N/A   Overcast
7:53 AM 39.9 °F - 36.0 °F 86% 30.02 in 10.0 mi Calm Calm - N/A   Overcast
8:53 AM 41.0 °F - 36.0 °F 82% 30.02 in 10.0 mi Calm Calm - N/A   Overcast
9:53 AM 42.1 °F - 36.0 °F 79% 30.02 in 10.0 mi Calm Calm - N/A   Overcast
10:53 AM 42.1 °F - 36.0 °F 79% 30.02 in 10.0 mi Calm Calm - N/A   Overcast
11:53 AM 42.1 °F - 37.0 °F 82% 30.00 in 10.0 mi Calm Calm - N/A   Overcast
12:53 PM 43.0 °F - 37.0 °F 80% 29.99 in 10.0 mi Calm Calm - N/A   Overcast
1:53 PM 42.1 °F - 37.0 °F 82% 29.98 in 10.0 mi Calm Calm - N/A   Overcast
2:53 PM 43.0 °F 41.3 °F 37.0 °F 80% 29.97 in 10.0 mi ESE 3.5 mph - N/A   Overcast
3:53 PM 43.0 °F - 37.0 °F 80% 29.98 in 10.0 mi Calm Calm - N/A   Overcast
4:53 PM 42.1 °F - 37.0 °F 82% 29.97 in 10.0 mi Calm Calm - N/A   Overcast
5:53 PM 42.1 °F - 37.0 °F 82% 29.96 in 10.0 mi Calm Calm - N/A   Overcast
6:53 PM 42.1 °F - 37.9 °F 85% 29.96 in 10.0 mi Calm Calm - N/A   Overcast
7:53 PM 42.1 °F - 37.9 °F 85% 29.96 in 9.0 mi Calm Calm - N/A   Overcast
8:53 PM 42.1 °F - 37.9 °F 85% 29.95 in 10.0 mi Calm Calm - N/A   Overcast
9:53 PM 42.1 °F 40.2 °F 39.0 °F 89% 29.94 in 8.0 mi East 3.5 mph - N/A   Overcast
10:53 PM 42.1 °F 40.2 °F 39.0 °F 89% 29.93 in 8.0 mi North 3.5 mph - N/A   Overcast
11:53 PM 42.1 °F - 39.0 °F 89% 29.92 in 9.0 mi Calm Calm - N/A   Overcast